Tracking 32110 objects as of 7-Nov-2025
HD Live streaming from Space Station
objects crossing your sky now

CZ-3C DEB

Track CZ-3C DEB now!


NORAD ID: 40853
Int'l Code: 2012-008T
Perigee: 846.2 km
Apogee: 35,191.9 km
Inclination: 20.7 °
Period: 631.8 minutes
Semi major axis: 24390 km
RCS: Unknown
Launch date: February 24, 2012
Source: People's Republic of China (PRC)
Launch site: Xichang Space Center, China (XSC)

Note: This is SATELLITE DEBRIS
Your satellite tracking list
Your tracking list is empty




NASA's NSSDC Master Catalog

Two Line Element Set (TLE):
1 40853U 12008T   25303.55170382 -.00000010  00000-0 -29506-2 0  9992
2 40853  20.6855 121.2462 7040931  11.9149 358.5911  2.27921199 92617
Source of the keplerian elements: AFSPC